Вернуться в каталог

FENGYUN 1C DEB

LostSSO
NORAD 38502·DEBRIS·🇨🇳 China

Запущен May 10, 1999 с Taiyuan Satellite Launch Center

Loading…

Ближайшие Пролёты (ближайшие 24 часа)

TLE

УстаревшееSource: Space-Track

Эпоха: Dec 6, 2021, 10:11 UTC

1 38502U 99025ESM 21340.42484300  .00000508  00000-0  30450-3 0  9996
2 38502  99.1838 133.5993 0041086 197.6611 190.4646 14.11270516737961

Отслеживайте FENGYUN 1C DEB в реальном времени с AllMySat

Download on the App Store